Regional Weather Roundup
Issued by NWS Nashville, TN

Home | Current Version | Previous Version | Text Only | Print | Product List | Glossary On
Versions: 1 2 3 4 5 6 7 8 9 10 11 12 13 14 15 16 17 18 19 20 21 22 23 24 25 26 27 28 29 30 31 32 33 34 35 36 37 38 39 40 41 42 43 44 45 46 47 48 49 50
000
ASUS44 KOHX 061510
RWROHX
MIDDLE TENNESSEE HOURLY WEATHER ROUNDUP
NATIONAL WEATHER SERVICE NASHVILLE TN
1000 AM CDT MON JUL 06 2015

NOTE: "FAIR" INDICATES FEW OR NO CLOUDS BELOW 12,000 FEET WITH
NO SIGNIFICANT WEATHER AND/OR OBSTRUCTIONS TO VISIBILITY.

* THESE REPORTS ARE NOT UNDER NWS QUALITY CONTROL AND MAY NOT
  REPORT WEATHER SUCH AS PRECIPITATION AND FOG.


TNZ005>011-023>034-057-059-062>066-078-080-061600
...NORTHERN MIDDLE TENNESSEE...

CITY           SKY/WX    TMP DP  RH WIND       PRES   REMARKS
CLARKSVILLE    PTSUNNY   79  72  79 S6        30.11F
CROSSVILLE     MOSUNNY   77  66  68 W5        30.21R
GALLATIN       CLOUDY    75  32  20 VRB3      30.14F
DICKSON        SUNNY     79  70  73 S6        30.14S
NASHVILLE      MOSUNNY   79  72  79 S5        30.13F
PORTLAND         N/A    N/A N/A N/A S5        30.12F
ROCKWOOD       PTSUNNY   74  70  87 CALM      30.20S
SMYRNA         MOSUNNY   83  72  69 S6        30.14F
SPARTA         MOSUNNY   81  73  78 S3        30.16S
$$
TNZ056-058-060-061-075>077-079-093>097-061600
...SOUTHERN MIDDLE TENNESSEE...

CITY           SKY/WX    TMP DP  RH WIND       PRES   REMARKS
COLUMBIA       CLOUDY    77  72  83 SW6       30.14F
LEWISBURG      CLOUDY    75  68  79 MISG      30.17R
MCMINNVILLE    MOSUNNY   79  75  89 CALM      30.17F
SHELBYVILLE    CLOUDY    75  72  88 CALM        N/A
TULLAHOMA      CLOUDY    73  68  83 CALM      30.19S
WINCHESTER     MOSUNNY   77  70  78 CALM      30.18F
$$


...KEY TO REMARKS...
VSB - VISIBILITY IN MILES
WCI - WIND CHILL INDEX
HX  - HEAT INDEX




USA.gov is the U.S. government's official web portal to all federal, state and local government web resources and services.